Bermuda Spirit — C6XT2 — position and weather

sailwx.info

Track history (hours):
 
Tides and Currents Weather Stations Pressure Air Temp Water Temp Dewpoint Dewpoint Depression Visibility Wind Speed Wind Dir Waves Ship Positions

Bermuda Spirit

Last reported at 2014-Sep-03 01:30 UTC. Time now 2014-Sep-03 02:36 UTC.
Position N 37°03' E 026°41'.

Length 274 m; draft 12.5 m.

Type: Tanker. MMSI: 311020900.

Date/timePositionNaut miles runAvg speedWind from/ knotsBaromVisibWave heightAir tempDewpointWater temp
2014-Sep-03 01:30N 37°03' E 026°41'1413.8
2014-Sep-03 00:28N 36°49' E 026°43'1413.7
2014-Sep-02 23:28N 36°35' E 026°44'1213.6
2014-Sep-02 22:33N 36°25' E 026°52'1414.2
2014-Sep-02 21:33N 36°15' E 027°04'1414.1
2014-Sep-02 20:33N 36°04' E 027°16'1313.4
2014-Sep-02 19:33N 35°53' E 027°26'1413.5
2014-Sep-02 18:30N 35°40' E 027°31'  
2014-Aug-31 12:14N 31°11' E 029°37'1 0.1
2014-Aug-31 01:25N 31°10' E 029°37'0 0.0
2014-Aug-30 14:16N 31°10' E 029°37'0 0.0
2014-Aug-29 23:25N 31°10' E 029°37'0 0.0
2014-Aug-29 16:04N 31°10' E 029°37'0 0.0
2014-Aug-28 21:25N 31°10' E 029°37'0 0.0
2014-Aug-28 19:04N 31°10' E 029°37'0 0.0
2014-Aug-28 18:31N 31°10' E 029°37'0 0.0
2014-Aug-28 17:22N 31°10' E 029°37'0 0.0
2014-Aug-28 16:31N 31°10' E 029°37'0 0.0
2014-Aug-28 15:28N 31°10' E 029°37'0 0.0
2014-Aug-28 02:19N 31°10' E 029°37'0 0.0
2014-Aug-27 15:28N 31°10' E 029°37'0 0.0
2014-Aug-27 14:25N 31°10' E 029°37'0 0.0
2014-Aug-26 22:22N 31°10' E 029°37'0 0.0
2014-Aug-26 21:31N 31°10' E 029°37'0 0.0
2014-Aug-26 20:31N 31°10' E 029°37'0 0.0
2014-Aug-26 15:31N 31°10' E 029°37'0 0.0
2014-Aug-26 14:31N 31°10' E 029°37'0 0.0
2014-Aug-26 13:31N 31°10' E 029°37'0 0.0
2014-Aug-26 12:31N 31°10' E 029°37'0 0.0
2014-Aug-26 11:25N 31°10' E 029°37'0 0.0
2014-Aug-26 10:31N 31°10' E 029°37'0 0.0
2014-Aug-26 09:28N 31°10' E 029°37'0 0.0
2014-Aug-26 05:31N 31°10' E 029°37'0 0.0
2014-Aug-26 04:25N 31°10' E 029°37'0 0.0
2014-Aug-26 02:31N 31°10' E 029°37'0 0.0
2014-Aug-26 01:31N 31°10' E 029°37'0 0.0
2014-Aug-25 22:19N 31°10' E 029°37'0 0.0
2014-Aug-25 21:31N 31°10' E 029°37'0 0.0
2014-Aug-25 20:22N 31°10' E 029°37'0 0.0
2014-Aug-25 19:07N 31°10' E 029°37'0 0.0
2014-Aug-25 18:13N 31°10' E 029°37'0 0.0
2014-Aug-25 17:22N 31°10' E 029°37'0 0.0
2014-Aug-25 16:31N 31°10' E 029°37'0 0.0
2014-Aug-25 15:31N 31°10' E 029°37'0 0.0
2014-Aug-25 14:31N 31°10' E 029°37'0 0.0
2014-Aug-25 13:31N 31°10' E 029°37'0 0.0
2014-Aug-25 12:31N 31°10' E 029°37'0 0.0
2014-Aug-25 11:22N 31°10' E 029°37'0 0.0
2014-Aug-25 07:31N 31°10' E 029°37'0 0.0
2014-Aug-25 06:25N 31°10' E 029°37'0 0.0
2014-Aug-24 23:31N 31°10' E 029°37'0 0.0
2014-Aug-24 22:31N 31°10' E 029°37'0 0.0
2014-Aug-24 21:28N 31°10' E 029°37'0 0.0
2014-Aug-24 20:28N 31°10' E 029°37'0 0.0
2014-Aug-24 19:07N 31°10' E 029°37'0 0.0
2014-Aug-24 17:28N 31°10' E 029°37'1 0.5
2014-Aug-24 16:23N 31°10' E 029°37'4 5.3
2014-Aug-24 15:33N 31°13' E 029°34'1010.2
2014-Aug-24 14:33N 31°22' E 029°28'1010.3
2014-Aug-24 13:33N 31°30' E 029°21'1010.4
2014-Aug-24 12:33N 31°39' E 029°15'1110.6
2014-Aug-24 11:32N 31°49' E 029°09'1110.7
2014-Aug-24 10:31N 31°58' E 029°02'2110.5
2014-Aug-24 08:33N 32°16' E 028°49'1010.5
2014-Aug-24 07:34N 32°25' E 028°43'1514.9
2014-Aug-24 06:33N 32°38' E 028°34'1414.3
2014-Aug-24 05:33N 32°50' E 028°25'14 9.9
2014-Aug-24 04:10N 33°02' E 028°17'6 9.8
2014-Aug-24 03:31N 33°07' E 028°13'  
Track history (hours):
 
Tides and Currents Weather Stations Pressure Air Temp Water Temp Dewpoint Dewpoint Depression Visibility Wind Speed Wind Dir Waves Ship Positions

Bermuda Spirit

Last reported at 2014-Sep-03 01:30 UTC. Time now 2014-Sep-03 02:36 UTC.
Position N 37°03' E 026°41'.

Length 274 m; draft 12.5 m.

Type: Tanker. MMSI: 311020900.

Date/timePositionNaut miles runAvg speedWind from/ knotsBaromVisibWave heightAir tempDewpointWater temp
2014-Sep-03 01:30N 37°03' E 026°41'1413.8
2014-Sep-03 00:28N 36°49' E 026°43'1413.7
2014-Sep-02 23:28N 36°35' E 026°44'1213.6
2014-Sep-02 22:33N 36°25' E 026°52'1414.2
2014-Sep-02 21:33N 36°15' E 027°04'1414.1
2014-Sep-02 20:33N 36°04' E 027°16'1313.4
2014-Sep-02 19:33N 35°53' E 027°26'1413.5
2014-Sep-02 18:30N 35°40' E 027°31'  
2014-Aug-31 12:14N 31°11' E 029°37'1 0.1
2014-Aug-31 01:25N 31°10' E 029°37'0 0.0
2014-Aug-30 14:16N 31°10' E 029°37'0 0.0
2014-Aug-29 23:25N 31°10' E 029°37'0 0.0
2014-Aug-29 16:04N 31°10' E 029°37'0 0.0
2014-Aug-28 21:25N 31°10' E 029°37'0 0.0
2014-Aug-28 19:04N 31°10' E 029°37'0 0.0
2014-Aug-28 18:31N 31°10' E 029°37'0 0.0
2014-Aug-28 17:22N 31°10' E 029°37'0 0.0
2014-Aug-28 16:31N 31°10' E 029°37'0 0.0
2014-Aug-28 15:28N 31°10' E 029°37'0 0.0
2014-Aug-28 02:19N 31°10' E 029°37'0 0.0
2014-Aug-27 15:28N 31°10' E 029°37'0 0.0
2014-Aug-27 14:25N 31°10' E 029°37'0 0.0
2014-Aug-26 22:22N 31°10' E 029°37'0 0.0
2014-Aug-26 21:31N 31°10' E 029°37'0 0.0
2014-Aug-26 20:31N 31°10' E 029°37'0 0.0
2014-Aug-26 15:31N 31°10' E 029°37'0 0.0
2014-Aug-26 14:31N 31°10' E 029°37'0 0.0
2014-Aug-26 13:31N 31°10' E 029°37'0 0.0
2014-Aug-26 12:31N 31°10' E 029°37'0 0.0
2014-Aug-26 11:25N 31°10' E 029°37'0 0.0
2014-Aug-26 10:31N 31°10' E 029°37'0 0.0
2014-Aug-26 09:28N 31°10' E 029°37'0 0.0
2014-Aug-26 05:31N 31°10' E 029°37'0 0.0
2014-Aug-26 04:25N 31°10' E 029°37'0 0.0
2014-Aug-26 02:31N 31°10' E 029°37'0 0.0
2014-Aug-26 01:31N 31°10' E 029°37'0 0.0
2014-Aug-25 22:19N 31°10' E 029°37'0 0.0
2014-Aug-25 21:31N 31°10' E 029°37'0 0.0
2014-Aug-25 20:22N 31°10' E 029°37'0 0.0
2014-Aug-25 19:07N 31°10' E 029°37'0 0.0
2014-Aug-25 18:13N 31°10' E 029°37'0 0.0
2014-Aug-25 17:22N 31°10' E 029°37'0 0.0
2014-Aug-25 16:31N 31°10' E 029°37'0 0.0
2014-Aug-25 15:31N 31°10' E 029°37'0 0.0
2014-Aug-25 14:31N 31°10' E 029°37'0 0.0
2014-Aug-25 13:31N 31°10' E 029°37'0 0.0
2014-Aug-25 12:31N 31°10' E 029°37'0 0.0
2014-Aug-25 11:22N 31°10' E 029°37'0 0.0
2014-Aug-25 07:31N 31°10' E 029°37'0 0.0
2014-Aug-25 06:25N 31°10' E 029°37'0 0.0
2014-Aug-24 23:31N 31°10' E 029°37'0 0.0
2014-Aug-24 22:31N 31°10' E 029°37'0 0.0
2014-Aug-24 21:28N 31°10' E 029°37'0 0.0
2014-Aug-24 20:28N 31°10' E 029°37'0 0.0
2014-Aug-24 19:07N 31°10' E 029°37'0 0.0
2014-Aug-24 17:28N 31°10' E 029°37'1 0.5
2014-Aug-24 16:23N 31°10' E 029°37'4 5.3
2014-Aug-24 15:33N 31°13' E 029°34'1010.2
2014-Aug-24 14:33N 31°22' E 029°28'1010.3
2014-Aug-24 13:33N 31°30' E 029°21'1010.4
2014-Aug-24 12:33N 31°39' E 029°15'1110.6
2014-Aug-24 11:32N 31°49' E 029°09'1110.7
2014-Aug-24 10:31N 31°58' E 029°02'2110.5
2014-Aug-24 08:33N 32°16' E 028°49'1010.5
2014-Aug-24 07:34N 32°25' E 028°43'1514.9
2014-Aug-24 06:33N 32°38' E 028°34'1414.3
2014-Aug-24 05:33N 32°50' E 028°25'14 9.9
2014-Aug-24 04:10N 33°02' E 028°17'6 9.8
2014-Aug-24 03:31N 33°07' E 028°13'  

Dump ship's entire track history